Retour au catalogue

FENGYUN 1C DEB

LostSSO
NORAD 32182·DEBRIS·🇨🇳 China

Lancé May 10, 1999 depuis Taiyuan Satellite Launch Center

Loading…

Prochains Passages (prochaines 24 heures)

TLE

PériméSource: Space-Track

Époque: Oct 31, 2022, 13:58 UTC

1 32182U 99025CUC 22304.58216672  .00007929  00000-0  32895-2 0  9995
2 32182  98.2265 235.5562 0119054  70.3209 291.0771 14.22953233801571

Suivez FENGYUN 1C DEB en temps réel avec AllMySat

Download on the App Store